FW6802 Weather Reports


Display with metric or nautical units.
time (UTC)temp
F
wind
direction
speed
MPH
gust
MPH
rain 1hr
in
rain 24hr
in
rain mn
in
humidity
%
barometer
mb
20260507090155 42 293 0.0 12.0 0.00 0.00 0.00 76 1013.2
20260507084623 42 293 0.0 12.0 0.00 0.00 0.00 75 1013.3
20260507084122 42 293 0.0 12.0 0.00 0.00 0.00 74 1013.2
20260507083621 42 293 0.0 12.0 0.00 0.00 0.00 74 1013.2
20260507083121 42 293 0.0 12.0 0.00 0.00 0.00 74 1013.0
20260507082620 43 293 0.0 12.0 0.00 0.00 0.00 73 1013.1
20260507082120 43 293 0.0 12.0 0.00 0.00 0.00 73 1013.2
20260507081620 43 293 0.0 12.0 0.00 0.00 0.00 73 1013.1
20260507080604 43 293 0.0 12.0 0.00 0.00 0.00 72 1012.9
20260507075549 43 292 0.0 12.0 0.00 0.00 0.00 72 1013.1
20260507075049 44 292 0.0 12.0 0.00 0.00 0.00 72 1013.4
20260507074549 44 292 0.0 12.0 0.00 0.00 0.00 72 1013.3
20260507073534 44 289 1.0 12.0 0.00 0.00 0.00 72 1013.1
20260507073034 44 288 0.0 12.0 0.00 0.00 0.00 72 1013.0
20260507072533 44 287 0.0 12.0 0.00 0.00 0.00 72 1013.0
20260507071517 45 287 0.0 12.0 0.00 0.00 0.00 71 1013.2
20260507071017 45 288 0.0 12.0 0.00 0.00 0.00 71 1013.0
20260507070517 45 288 0.0 12.0 0.00 0.00 0.00 71 1013.0
20260507070017 45 288 0.0 12.0 0.00 0.00 0.00 70 1013.2
20260507065517 45 289 0.0 12.0 0.00 0.00 0.00 70 1013.1
20260507065016 46 288 1.0 12.0 0.00 0.00 0.00 69 1013.3
20260507064516 46 291 0.0 12.0 0.00 0.00 0.00 69 1013.4
20260507064016 46 294 1.0 12.0 0.00 0.00 0.00 69 1013.3
20260507063516 46 298 0.0 12.0 0.00 0.00 0.00 69 1013.5
20260507063016 46 298 0.0 12.0 0.00 0.00 0.00 69 1013.2
20260507062001 46 319 3.0 12.0 0.00 0.00 0.00 70 1013.4
20260507060946 46 294 1.0 12.0 0.00 0.00 0.00 71 1013.6
20260507060445 46 293 0.0 12.0 0.00 0.00 0.00 72 1013.6
20260507055944 46 295 2.0 12.0 0.00 0.00 0.00 72 1013.5
20260507055444 46 308 2.0 12.0 0.00 0.00 0.00 73 1013.6
20260507054944 46 305 2.0 12.0 0.00 0.00 0.00 74 1013.3
20260507054444 46 276 0.0 12.0 0.00 0.00 0.00 74 1013.2
20260507053944 46 275 0.0 12.0 0.00 0.00 0.00 74 1013.3
20260507053444 46 275 0.0 12.0 0.00 0.00 0.00 74 1013.5
20260507052944 46 275 0.0 12.0 0.00 0.00 0.00 73 1013.2
20260507052444 46 275 0.0 12.0 0.00 0.00 0.00 73 1013.1
20260507051943 46 275 0.0 12.0 0.00 0.00 0.00 73 1013.3
20260507051443 46 275 0.0 12.0 0.00 0.00 0.00 73 1013.0
20260507050428 47 276 0.0 12.0 0.00 0.00 0.00 72 1013.0
20260507045928 47 281 0.0 12.0 0.00 0.00 0.00 73 1013.4
20260507045428 47 290 0.0 12.0 0.00 0.00 0.00 72 1013.1
20260507044928 47 291 0.0 12.0 0.00 0.00 0.00 73 1013.2
20260507044427 47 291 0.0 12.0 0.00 0.00 0.00 73 1013.1
20260507043412 47 293 0.0 12.0 0.00 0.00 0.00 73 1013.0
20260507042357 47 293 0.0 12.0 0.00 0.00 0.00 72 1012.9
20260507041857 47 293 0.0 12.0 0.00 0.00 0.00 72 1012.9
20260507041357 47 293 0.0 12.0 0.00 0.00 0.00 72 1012.8
20260507040341 48 293 0.0 12.0 0.00 0.00 0.00 71 1012.9
20260507035840 48 293 0.0 12.0 0.00 0.00 0.00 70 1013.0
20260507035339 48 293 0.0 12.0 0.00 0.00 0.00 70 1012.9
20260507034839 48 293 0.0 12.0 0.00 0.00 0.00 70 1012.9
20260507033824 49 293 0.0 12.0 0.00 0.00 0.00 69 1012.7
20260507033324 49 292 0.0 12.0 0.00 0.00 0.21 69 1012.9
20260507032824 49 292 0.0 12.0 0.00 0.00 0.21 69 1013.0
20260507032324 49 292 0.0 12.0 0.00 0.00 0.21 69 1012.8
20260507031823 49 292 0.0 12.0 0.00 0.00 0.21 68 1012.9
20260507031323 49 293 0.0 12.0 0.00 0.00 0.21 68 1012.9
20260507030822 49 293 0.0 12.0 0.00 0.00 0.21 67 1012.7
20260507030321 50 293 0.0 12.0 0.00 0.00 0.21 67 1012.8
20260507025820 50 292 0.0 12.0 0.00 0.00 0.21 67 1012.8
20260507025320 50 292 0.0 12.0 0.00 0.00 0.21 66 1013.1
20260507024819 50 290 0.0 12.0 0.00 0.00 0.21 66 1013.0
20260507024319 50 290 0.0 12.0 0.00 0.00 0.21 65 1012.6
20260507023819 51 290 0.0 12.0 0.00 0.00 0.21 65 1012.8
20260507023318 51 294 1.0 12.0 0.00 0.00 0.21 65 1012.7
20260507022818 51 295 0.0 12.0 0.00 0.00 0.21 64 1012.8
20260507022317 51 295 0.0 12.0 0.00 0.00 0.21 64 1012.6
20260507021816 51 298 1.0 12.0 0.00 0.00 0.21 64 1012.7
20260507021316 51 296 1.0 12.0 0.00 0.00 0.21 64 1012.6
20260507020815 51 295 1.0 12.0 0.00 0.00 0.21 63 1012.5
20260507015800 52 294 1.0 12.0 0.00 0.00 0.21 62 1012.5
20260507015300 52 294 0.0 12.0 0.00 0.00 0.21 62 1012.6
20260507014244 52 297 1.0 12.0 0.00 0.00 0.21 61 1012.5
20260507013744 52 290 1.0 12.0 0.00 0.00 0.21 60 1012.5
20260507013244 52 289 2.0 12.0 0.00 0.00 0.21 60 1012.6
20260507012743 53 262 1.0 12.0 0.00 0.00 0.21 59 1012.3
20260507012242 53 265 1.0 12.0 0.00 0.00 0.21 59 1012.1
20260507011741 53 265 1.0 12.0 0.00 0.00 0.21 58 1012.1
20260507011240 53 264 0.0 12.0 0.00 0.00 0.21 57 1012.1
20260507010224 54 261 1.0 12.0 0.00 0.00 0.21 57 1011.8
20260507005723 54 262 0.0 12.0 0.00 0.00 0.21 55 1012.0
20260507005223 54 249 0.0 12.0 0.00 0.00 0.21 55 1011.8
20260507004208 55 256 2.0 12.0 0.00 0.00 0.21 53 1011.7
20260507003707 55 273 3.0 12.0 0.00 0.00 0.21 53 1011.8
20260507002651 56 255 2.0 12.0 0.00 0.00 0.21 52 1011.6
20260507002151 56 293 3.0 12.0 0.00 0.00 0.21 52 1011.3
20260507001651 57 280 3.0 12.0 0.00 0.00 0.21 51 1011.3
20260507001151 57 327 4.0 12.0 0.00 0.00 0.21 52 1010.9
20260507000651 57 292 5.0 12.0 0.00 0.00 0.21 51 1011.2
20260507000150 57 278 3.0 12.0 0.00 0.00 0.21 54 1011.2
20260506235650 57 248 2.0 12.0 0.00 0.00 0.21 56 1002.9
20260506235149 57 263 3.0 12.0 0.00 0.00 0.21 57 1001.9
20260506234649 57 247 3.0 12.0 0.00 0.00 0.21 57 1002.1
20260506234148 57 266 2.0 12.0 0.00 0.00 0.21 57 1011.2
20260506233647 58 221 1.0 12.0 0.00 0.00 0.21 57 1010.1
20260506233147 58 284 3.0 12.0 0.00 0.00 0.21 57 997.2
20260506232646 58 264 4.0 12.0 0.00 0.00 0.21 55 1010.5
20260506232145 58 260 3.0 12.0 0.00 0.00 0.21 55 1004.3
20260506231645 58 264 4.0 12.0 0.00 0.00 0.21 54 997.0
20260506231145 58 287 4.0 12.0 0.00 0.00 0.21 54 1008.5
20260506230645 58 275 3.0 12.0 0.00 0.00 0.21 55 1009.6
20260506230144 58 243 1.0 12.0 0.00 0.00 0.21 54 1010.3
20260506225644 58 247 4.0 12.0 0.00 0.00 0.21 53 1010.9
20260506224114 59 253 5.0 12.0 0.00 0.00 0.21 50 1007.7
20260506223058 59 250 4.0 12.0 0.00 0.00 0.21 50 1010.9
20260506221527 59 226 3.0 11.0 0.00 0.00 0.21 49 1011.6
20260506221027 59 272 3.0 11.0 0.00 0.00 0.21 50 1011.5
20260506220527 58 275 4.0 11.0 0.00 0.00 0.21 50 1011.6
20260506220026 58 252 4.0 11.0 0.00 0.00 0.21 49 1011.4
20260506215526 58 268 4.0 11.0 0.00 0.00 0.21 49 1011.6
20260506215026 58 275 4.0 11.0 0.00 0.00 0.21 48 1011.7
20260506214011 59 308 5.0 13.0 0.00 0.00 0.21 49 1011.3
20260506213511 59 227 3.0 13.0 0.00 0.00 0.21 50 1011.4
20260506213010 59 243 4.0 13.0 0.00 0.00 0.21 50 1011.5
20260506211439 59 309 6.0 13.0 0.00 0.00 0.21 50 1011.0
20260506210939 59 283 4.0 13.0 0.00 0.00 0.21 49 1011.0
20260506210439 59 252 4.0 13.0 0.00 0.00 0.21 49 1011.2
20260506205938 59 283 2.0 13.0 0.00 0.00 0.21 50 1011.2
20260506205437 59 279 3.0 13.0 0.00 0.00 0.21 50 1011.0
20260506204421 60 298 2.0 13.0 0.00 0.00 0.21 50 1011.2
20260506203920 59 264 3.0 13.0 0.00 0.00 0.21 50 1011.2
20260506203420 59 282 3.0 13.0 0.00 0.00 0.21 49 1011.0
20260506202919 59 266 3.0 13.0 0.00 0.00 0.21 48 1010.9
20260506202419 59 270 4.0 13.0 0.00 0.00 0.21 47 1011.0
20260506201919 60 252 4.0 13.0 0.00 0.00 0.21 47 1011.2
20260506201418 60 297 4.0 13.0 0.00 0.00 0.21 46 1011.4
20260506200917 60 286 3.0 13.0 0.00 0.00 0.21 46 1011.0
20260506200417 60 288 4.0 13.0 0.00 0.00 0.21 44 1011.2
20260506195917 60 257 2.0 13.0 0.00 0.00 0.21 46 1011.2
20260506195416 60 255 2.0 13.0 0.00 0.00 0.21 46 1011.0
20260506194915 60 240 3.0 13.0 0.00 0.00 0.21 48 1011.3
20260506194415 59 240 2.0 13.0 0.00 0.00 0.21 48 1011.4
20260506193914 60 262 5.0 13.0 0.00 0.00 0.21 48 1011.2
20260506193414 59 254 2.0 13.0 0.00 0.00 0.21 50 1011.3
20260506192914 60 249 4.0 13.0 0.00 0.00 0.21 50 1011.5
20260506192414 59 256 2.0 13.0 0.00 0.00 0.21 50 1011.4
20260506191913 59 269 2.0 13.0 0.00 0.00 0.21 49 1011.2
20260506191413 59 239 1.0 13.0 0.00 0.00 0.21 54 1010.9
20260506190912 59 242 1.0 13.0 0.00 0.00 0.21 56 1011.0
20260506190412 59 189 1.0 13.0 0.00 0.00 0.21 56 1011.2
20260506185911 59 214 1.0 13.0 0.00 0.00 0.21 56 1011.0
20260506185410 58 204 1.0 13.0 0.00 0.00 0.21 56 1011.0
20260506184909 58 203 1.0 13.0 0.00 0.00 0.21 57 1011.2
20260506184409 58 162 2.0 13.0 0.00 0.00 0.21 57 1011.2
20260506183909 58 265 4.0 13.0 0.00 0.00 0.21 55 1011.3
20260506182339 57 234 1.0 13.0 0.00 0.00 0.21 55 1011.1
20260506181839 57 276 0.0 13.0 0.00 0.00 0.21 56 1011.0
20260506180824 58 274 0.0 13.0 0.00 0.00 0.21 56 1011.4
20260506180324 58 288 0.0 13.0 0.00 0.00 0.21 56 1011.2
20260506175823 58 241 1.0 13.0 0.00 0.00 0.21 56 1011.5
20260506175323 58 244 1.0 13.0 0.00 0.00 0.21 56 1011.7
20260506174822 57 265 0.0 13.0 0.00 0.00 0.21 57 1011.3
20260506174321 57 266 2.0 13.0 0.00 0.00 0.21 56 1011.4
20260506173820 57 266 2.0 13.0 0.00 0.00 0.21 56 1011.2
20260506173320 57 256 1.0 13.0 0.00 0.00 0.21 57 1011.3
20260506172819 57 310 1.0 13.0 0.00 0.00 0.21 56 1011.3
20260506172319 57 311 2.0 13.0 0.00 0.00 0.21 55 1011.1
20260506171819 57 298 0.0 13.0 0.00 0.00 0.21 56 1011.0
20260506171319 57 295 1.0 13.0 0.00 0.00 0.21 57 1011.6
20260506170819 56 262 2.0 13.0 0.00 0.00 0.21 57 1011.7
20260506170319 57 332 2.0 13.0 0.00 0.00 0.21 58 1011.8
20260506165818 57 247 3.0 13.0 0.00 0.00 0.21 59 1011.7
20260506165317 57 289 2.0 13.0 0.00 0.00 0.21 58 1011.4
20260506164301 58 254 2.0 13.0 0.00 0.00 0.21 56 1011.4
20260506163800 58 263 2.0 13.0 0.00 0.00 0.21 56 1011.1
20260506163259 58 304 4.0 13.0 0.00 0.00 0.21 55 1011.4
20260506162758 58 234 3.0 13.0 0.00 0.00 0.21 57 1011.2
20260506162258 58 251 0.0 13.0 0.00 0.00 0.21 58 1011.1
20260506161757 58 240 1.0 13.0 0.00 0.00 0.21 60 1011.2
20260506161257 57 246 2.0 13.0 0.00 0.00 0.21 57 1011.2
20260506160757 57 324 3.0 13.0 0.00 0.00 0.21 57 1011.4
20260506160256 57 83 1.0 13.0 0.00 0.00 0.21 59 1011.2
20260506155755 56 34 1.0 13.0 0.00 0.00 0.21 59 1011.3
20260506155254 56 298 2.0 13.0 0.00 0.00 0.21 58 1011.2
20260506154753 56 333 2.0 13.0 0.00 0.00 0.21 62 1011.5
20260506154252 56 298 2.0 13.0 0.00 0.00 0.21 62 1011.4
20260506153752 56 291 2.0 13.0 0.00 0.00 0.21 62 1011.0
20260506153252 56 280 3.0 13.0 0.00 0.00 0.21 61 1011.1
20260506152236 56 308 3.0 13.0 0.00 0.00 0.21 62 1011.2
20260506151736 56 255 2.0 13.0 0.00 0.00 0.21 64 1011.3
20260506151235 56 302 4.0 13.0 0.00 0.00 0.21 63 1011.4
20260506150734 56 289 2.0 13.0 0.00 0.00 0.21 62 1011.2
20260506150233 55 274 3.0 13.0 0.00 0.00 0.21 63 1011.1
20260506145732 56 303 4.0 13.0 0.00 0.00 0.21 62 1011.2
20260506145232 56 290 1.0 13.0 0.00 0.00 0.21 62 1011.3
20260506144731 56 340 2.0 13.0 0.00 0.00 0.21 63 1010.9
20260506144230 56 15 2.0 13.0 0.00 0.00 0.21 65 1010.6
20260506143729 55 5 3.0 13.0 0.00 0.00 0.21 64 1010.9
20260506143228 55 297 3.0 13.0 0.00 0.00 0.21 66 1011.1
20260506142728 55 9 2.0 13.0 0.00 0.00 0.21 68 1010.8
20260506141156 54 276 1.0 13.0 0.00 0.00 0.21 71 1010.8
20260506140656 54 310 4.0 13.0 0.00 0.00 0.21 71 1011.1
20260506135640 54 273 1.0 13.0 0.00 0.00 0.21 74 1010.7
20260506135140 53 354 1.0 13.0 0.00 0.00 0.21 75 1010.2
20260506134640 53 287 3.0 13.0 0.00 0.00 0.21 74 1010.3
20260506134139 52 310 0.0 13.0 0.00 0.00 0.21 76 1010.6
20260506133637 52 308 3.0 13.0 0.00 0.00 0.21 77 1010.6
20260506133137 52 269 2.0 13.0 0.00 0.00 0.21 81 1010.3
20260506132637 52 248 0.0 13.0 0.00 0.00 0.21 83 1010.1
20260506132138 52 251 2.0 13.0 0.00 0.00 0.21 84 1010.4
20260506131638 51 257 2.0 13.0 0.00 0.00 0.21 85 1010.8
20260506131136 51 235 0.0 13.0 0.00 0.00 0.21 86 1010.7
20260506130635 50 231 0.0 13.0 0.00 0.00 0.21 87 1010.7
20260506130134 50 232 2.0 13.0 0.00 0.00 0.21 89 1010.6
20260506125119 49 223 1.0 13.0 0.00 0.00 0.21 89 1010.4
20260506124619 49 229 0.0 13.0 0.00 0.00 0.21 90 1010.3
20260506124118 49 229 0.0 13.0 0.00 0.00 0.21 90 1010.5
20260506123618 49 237 0.0 13.0 0.00 0.00 0.21 92 1010.2
20260506123119 48 241 0.0 13.0 0.00 0.00 0.21 92 1010.6
20260506122618 48 242 2.0 13.0 0.00 0.00 0.21 93 1010.5
20260506122117 48 263 1.0 13.0 0.00 0.00 0.21 94 1010.4
20260506121617 47 275 0.0 13.0 0.00 0.00 0.21 94 1010.3
20260506120602 46 258 0.0 13.0 0.00 0.00 0.21 94 1010.0
20260506115601 46 258 0.0 13.0 0.00 0.00 0.21 94 1009.9
20260506115101 46 258 0.0 13.0 0.00 0.00 0.21 94 1010.0
20260506114600 45 257 0.0 13.0 0.00 0.00 0.21 94 1010.0
20260506114101 45 257 0.0 13.0 0.00 0.00 0.21 93 1010.0
20260506113600 45 271 0.0 13.0 0.00 0.00 0.21 93 1009.9
20260506113100 45 271 0.0 13.0 0.00 0.00 0.21 92 1009.7
20260506112601 45 271 0.0 13.0 0.00 0.00 0.21 92 1009.3
20260506112100 45 271 0.0 13.0 0.00 0.00 0.21 92 1009.1
20260506111601 45 271 0.0 13.0 0.00 0.00 0.21 92 1009.1
20260506111101 45 271 0.0 13.0 0.00 0.00 0.21 92 1009.4
20260506110600 45 271 0.0 13.0 0.00 0.00 0.21 92 1009.1
20260506105545 44 331 0.0 13.0 0.00 0.00 0.21 92 1009.2
20260506105045 44 0 0.0 13.0 0.00 0.00 0.21 92 1008.8
20260506104544 44 0 0.0 13.0 0.00 0.00 0.21 92 1009.0
20260506104045 44 0 0.0 13.0 0.00 0.00 0.21 91 1008.9
20260506103545 44 0 0.0 13.0 0.00 0.00 0.21 91 1008.8
20260506103044 45 0 0.0 13.0 0.00 0.00 0.21 91 1008.5
20260506102545 45 0 0.0 13.0 0.00 0.00 0.21 91 1008.6
20260506102045 45 0 0.0 13.0 0.00 0.00 0.21 91 1008.9
20260506101544 44 0 0.0 13.0 0.00 0.00 0.21 91 1008.9
20260506101043 44 0 0.0 13.0 0.00 0.00 0.21 91 1009.0
20260506100542 44 0 0.0 13.0 0.00 0.00 0.21 91 1009.3
20260506100041 44 58 1.0 13.0 0.00 0.00 0.21 91 1009.1
20260506095027 44 0 0.0 13.0 0.00 0.00 0.21 91 1008.5
20260506094527 44 0 0.0 13.0 0.00 0.00 0.21 91 1008.1
20260506094026 44 0 0.0 13.0 0.00 0.00 0.21 91 1008.3
20260506093526 44 0 0.0 13.0 0.00 0.00 0.21 91 1008.5
20260506093027 44 0 1.0 13.0 0.00 0.00 0.21 91 1008.4
20260506092012 44 45 1.0 13.0 0.00 0.00 0.21 91 1008.3
20260506091511 44 61 0.0 13.0 0.00 0.00 0.21 91 1008.3
20260506091012 44 59 1.0 13.0 0.00 0.00 0.21 91 1008.1